Regional Weather Roundup
Issued by NWS

Home | Current Version | Previous Version | Graphics & Text | Print | Product List | Glossary On
Versions: 1 2 3 4 5 6 7 8 9 10 11 12 13 14 15 16 17 18 19 20 21 22 23 24 25 26 27
000
ASUS45 KBOU 221807
RWRCO

WEATHER ROUNDUP FOR COLORADO
NATIONAL WEATHER SERVICE DENVER/BOULDER CO
1200 PM MDT THU JUN 22 2017

NOTE: "FAIR" INDICATES FEW OR NO CLOUDS BELOW 12000 FEET WITH NO
SIGNIFICANT WEATHER AND/OR OBSTRUCTIONS TO VISIBILITY.

COZ001>005-013-030-031-221900-
...NORTHWEST COLORADO...

CITY           SKY/WX    TMP DP  RH WIND       PRES   REMARKS
CRAIG          FAIR      84  42  22 VRB6      30.03F
HAYDEN         FAIR      81  43  26 W9        30.05F
MEEKER         FAIR      87  39  18 MISG      30.03S
RABBIT EARS PA FAIR      63  37  39 NW7G20    30.37S
STEAMBOAT SPGS FAIR      78  45  31 CALM      30.07F
WALDEN         FAIR      77  34  20 W15       30.16F
$$

COZ006>008-011-221900-
...WEST CENTRAL VALLEYS...

CITY           SKY/WX    TMP DP  RH WIND       PRES   REMARKS
GRAND JUNCTION FAIR      89  38  16 S6        29.91F
MONTROSE       FAIR      86  48  26 NW8       30.00F
EAGLE          SUNNY    N/A N/A N/A SE3       30.06F
RIFLE          FAIR      86  38  18 VRB6      29.97F
DELTA          FAIR      92  34  13 SE6       29.95F
NUCLA          FAIR      90  32  12 NW7       30.05S
$$

COZ017>023-064>068-221900-
...SOUTHWEST COLORADO...

CITY           SKY/WX    TMP DP  RH WIND       PRES   REMARKS
DURANGO        FAIR      89  30  12 SW12G17   30.09F
CORTEZ         FAIR      90  25   9 VRB5      30.05S
PAGOSA SPRINGS FAIR      81  30  15 SE8       30.20F
TELLURIDE      FAIR      78  24  13 W9        30.32S
WOLF CREEK PAS FAIR      63  32  31 SW12G21   30.59F
$$

COZ009-010-012-014-032>034-037-058>063-221900-
...CENTRAL COLORADO...

CITY           SKY/WX    TMP DP  RH WIND       PRES   REMARKS
ASPEN          FAIR      79  40  24 NE6       30.14F
BUENA VISTA    FAIR      84  24  11 W21G26    30.15F
COPPER MTN     PTSUNNY   64  27  24 W15G22    30.50
BERTHOUD PASS  FAIR      55  43  62 NW26G39   30.53R
COTTONWOOD PAS FAIR      77  19  11 NW7       30.31F
GUNNISON       FAIR      75  38  26 W3        30.17F
KREMMLING      NOT AVBL
LEADVILLE      FAIR      73  26  17 NW12G22   30.30S HAZE
MONARCH PASS   FAIR      63  30  29 W37G45    30.62R
SALIDA         FAIR      88  27  11 W16G29    30.19S
SUNLIGHT       FAIR      68  32  26 SW12G20   30.43S
WILKERSON PASS FAIR      68  23  18 SW6       30.46F
$$

COZ069>075-221900-
...SAN LUIS VALLEY/SANGRE DE CRISTO MOUNTAINS...

CITY           SKY/WX    TMP DP  RH WIND       PRES   REMARKS
ALAMOSA        LGT RAIN  77  36  22 NW25G43   30.20R
DEL NORTE      FAIR      81  37  20 SE12G22   30.17F
LA VETA PASS   FAIR      75  36  23 MISG      30.49F
SAGUACHE       FAIR      79  36  21 S7        30.19F
$$

COZ035-036-038>040-221900-
...NORTHERN COLORADO FRONT RANGE...

CITY           SKY/WX    TMP DP  RH WIND       PRES   REMARKS
DENVER INTL AP FAIR      88  43  20 NE20G28   29.92S
DMNS CITY PARK   N/A     77  50  38 NE6G20    29.91R
AURORA         LGT RAIN  89  42  19 NE15G25   29.93F
FRONT RANGE AP FAIR      90  43  19 NE17G25   29.94F
ERIE MUNI ARPT FAIR      89  42  19 NE18G28   29.91R
BOULDER MUN AP FAIR      88  45  22 NE16G22   29.91R
CENTENNIAL     PTSUNNY   91  34  13 N10       29.94F
BROOMFIELD     FAIR      90  37  15 NE17      29.95R
FORT COLLINS   FAIR      84  50  30 NE23      29.92R
LONGMONT       FAIR      89  47  23 NE15G24   29.93R
$$

COZ041-046-047-076>085-087-088-221900-
...PIKES PEAK/PALMER DIVIDE AND SOUTHERN FOOTHILLS...

CITY           SKY/WX    TMP DP  RH WIND       PRES   REMARKS
COLO. SPRINGS  PTSUNNY   92  33  12 VRB3      29.97F
A. F. ACADEMY  FAIR      89  29  11 S9        29.99F
SCHRIEVER AFB  NOT AVBL
CHEYENNE MTN   NOT AVBL
ELLICOTT       FAIR     N/A N/A N/A SW12      29.96F
FALCON           N/A     90  29  11 W14       30.05F
FORT CARSON    FAIR      93  32  11 CALM      29.93F
LIMON          FAIR      92  40  16 N18       29.92F
MONUMENT HILL  FAIR      86  34  15 W10G16    30.06F
CANON CITY     SUNNY     95  37  13 SW3       29.89F
WALSENBURG     FAIR      90  37  15 W10       29.99F
TRINIDAD       FAIR      95  35  12 N9        29.97F
$$

COZ042>045-048>051-090-091-221900-
...NORTHEAST COLORADO...

CITY           SKY/WX    TMP DP  RH WIND       PRES   REMARKS
GREELEY ARPT   FAIR      83  51  33 NE22G31   29.91S
AKRON          FAIR      84  50  30 NE22G33   29.91R
BURLINGTON     FAIR      96  49  20 N20G26    29.82S
WRAY           FAIR      90  50  25 N24G31    29.83S
YUMA           NOT AVBL
STERLING       FAIR      82  52  34 NE17G24   29.87R
HOLYOKE        NOT AVBL
FORT MORGAN    FAIR      84  46  26 NE17G26   29.91R
$$

COZ086-089-092>099-221900-
...SOUTHEAST COLORADO...

CITY           SKY/WX    TMP DP  RH WIND       PRES   REMARKS
PUEBLO         FAIR      92  44  19 S5        29.85F
LA JUNTA       FAIR      95  52  23 W16       29.82F
LAMAR          FAIR      98  51  20 W13       29.75F
SPRINGFIELD      N/A     95  53  24 VRB6      29.82S
$$




USA.gov is the U.S. government's official web portal to all federal, state and local government web resources and services.